User: anonymous   Login
Location: Gull Harbor
(47.1000°N, 122.9000°W)
Time: 00:13:57
(UTC-07:00)
Language:

Tiangong - Orbit

View from above orbital plane
View from above orbital plane
View from above satellite
View from above satellite

Ground track
Ground track

The orbit data is extracted from the following two-line orbital elements,

1 48274U 21035A   24140.79639839  .00061120  00000-0  60837-3 0  9998
2 48274  41.4680 256.4749 0002784  14.1859 345.9059 15.64786048174653
Epoch (UTC): 19 May 2024 19:06:48
Eccentricity: 0.0002784
inclination: 41.4680°
perigee height: 372 km
apogee height: 376 km
right ascension of ascending node: 256.4749°
argument of perigee: 14.1859°
revolutions per day: 15.64786048
mean anomaly at epoch: 345.9059°
orbit number at epoch: 17465

The dashed part of the orbit path shows where the satellite is in the earth's shadow,  

DLR